Location: Melbourne
(37.8170°S, 144.9670°E)
Time: 05:53:45
(UTC+11:00)

deb Explorer IX - All Passes

Search period start: 26 October 2014 00:00
Search period end: 05 November 2014 00:00
Orbit: 559 x 1207 km, 38.8° (Epoch: 22 October)

Date Brightness Start Highest point End Pass type
(mag) Time Alt. Az. Time Alt. Az. Time Alt. Az.
26 Oct - 16:07:14 10° NW 16:11:47 41° NNE 16:17:10 10° E daylight
26 Oct - 17:54:33 10° W 17:59:54 89° S 18:06:26 10° E daylight
26 Oct - 19:42:38 10° W 19:48:39 87° S 19:55:50 10° E daylight
26 Oct - 21:30:52 10° W 21:37:19 55° NNW 21:44:42 10° NE visible
26 Oct - 23:20:23 10° W 23:25:32 21° NW 23:31:01 10° N visible
27 Oct - 14:18:35 10° NNE 14:20:14 12° NE 14:21:58 10° ENE daylight
27 Oct - 16:02:54 10° NW 16:07:30 49° NNE 16:12:57 10° E daylight
27 Oct - 17:50:26 10° W 17:55:43 85° S 18:02:09 10° E daylight
27 Oct - 19:38:29 10° W 19:44:25 89° N 19:51:32 10° ENE daylight
27 Oct - 21:26:45 10° W 21:32:59 47° NNW 21:40:07 10° NE visible
27 Oct - 23:16:51 10° WNW 23:21:05 17° NW 23:25:32 10° N visible
28 Oct - 14:13:07 10° N 14:15:46 15° NE 14:18:36 10° ENE daylight
28 Oct - 15:58:33 10° WNW 16:03:09 58° NNE 16:08:39 10° E daylight
28 Oct - 17:46:14 10° W 17:51:28 82° S 17:57:48 10° E daylight
28 Oct - 19:34:16 10° W 19:40:06 82° NNW 19:47:06 10° ENE daylight
28 Oct - 21:22:35 10° W 21:28:33 40° NNW 21:35:21 10° NE visible
28 Oct - 23:13:47 10° WNW 23:16:32 12° NW 23:19:23 10° NNW visible
29 Oct - 14:08:02 10° N 14:11:14 20° NE 14:14:42 10° E daylight
29 Oct - 15:54:10 10° WNW 15:58:46 68° NNE 16:04:14 10° E daylight
29 Oct - 17:41:58 10° W 17:47:07 80° S 17:53:21 10° E daylight
29 Oct - 19:29:57 10° W 19:35:41 75° NNW 19:42:34 10° ENE daylight
29 Oct - 21:18:24 10° W 21:24:01 33° NNW 21:30:23 10° NNE visible
30 Oct - 14:03:07 10° NNW 14:06:39 25° NNE 14:10:32 10° E daylight
30 Oct - 15:49:45 10° WNW 15:54:19 78° NNE 15:59:44 10° E daylight
30 Oct - 17:37:37 10° W 17:42:42 81° S 17:48:50 10° E daylight
30 Oct - 19:25:34 10° W 19:31:11 66° NNW 19:37:54 10° ENE daylight
30 Oct - 21:14:14 10° W 21:19:24 27° NNW 21:25:12 10° NNE visible
31 Oct - 13:58:14 10° NNW 14:02:01 31° NNE 14:06:11 10° E daylight
31 Oct - 15:45:16 10° WNW 15:49:49 86° NNE 15:55:09 10° E daylight
31 Oct - 17:33:10 10° W 17:38:11 83° S 17:44:14 10° E daylight
31 Oct - 19:21:07 10° W 19:26:35 57° NNW 19:33:06 10° NE daylight
31 Oct - 21:10:07 10° W 21:14:41 21° NW 21:19:45 10° NNE visible
01 Nov - 13:53:24 10° NW 13:57:20 38° NNE 14:01:40 10° E daylight
01 Nov - 15:40:44 10° W 15:45:14 87° S 15:50:30 10° E daylight
01 Nov - 17:28:38 10° W 17:33:35 87° S 17:39:33 10° E daylight
01 Nov - 19:16:37 10° W 19:21:53 48° NNW 19:28:08 10° NE daylight
01 Nov - 21:06:09 10° WNW 21:09:54 17° NW 21:13:57 10° N visible
02 Nov - 12:04:26 10° NNE 12:05:18 11° NE 12:06:11 10° NE daylight
02 Nov - 13:48:33 10° NW 13:52:36 47° NNE 13:57:02 10° E daylight
02 Nov - 15:36:07 10° W 15:40:35 82° S 15:45:45 10° E daylight
02 Nov - 17:24:01 10° W 17:28:54 87° NNW 17:34:45 10° ENE daylight
02 Nov - 19:12:03 10° W 19:17:06 40° NNW 19:23:01 10° NE daylight
02 Nov - 21:02:38 10° WNW 21:05:00 12° NW 21:07:30 10° NNW visible
03 Nov - 11:58:06 10° N 12:00:23 14° NE 12:02:42 10° ENE daylight
03 Nov - 13:43:42 10° WNW 13:47:49 57° NNE 13:52:17 10° E daylight
03 Nov - 15:31:26 10° W 15:35:51 79° S 15:40:57 10° E daylight
03 Nov - 17:19:19 10° W 17:24:07 79° NNW 17:29:51 10° ENE daylight
03 Nov - 19:07:28 10° W 19:12:13 32° NNW 19:17:43 10° NNE daylight
04 Nov - 11:52:27 10° NNW 11:55:25 19° NNE 11:58:25 10° ENE daylight
04 Nov - 13:38:48 10° WNW 13:42:57 67° NNE 13:47:26 10° E daylight
04 Nov - 15:26:40 10° W 15:31:03 78° S 15:36:03 10° E daylight
04 Nov - 17:14:32 10° W 17:19:15 69° NNW 17:24:50 10° ENE daylight
04 Nov - 19:02:54 10° W 19:07:15 26° NNW 19:12:13 10° NNE daylight
